[[{"header":{"parameterUnit":"m.s-1","parameterCategory":1,"la1":30.2991,"la2":30.254,"lo1":-89.0895,"lo2":-89.0444,"dy":0.0017,"dx":0.0017,"nx":28,"ny":28,"refTime":"2025-12-10T09:00:00:Z","depth":0,"parameterNumber":2,"parameterNumberName":"U-component_of_WINDS"},"data":[0,0,0,0,0,0,0,0,0,0,0,0,0,0,0,0,0,0,0,0,0,0,0,0,0,0,0,0,0,0,0,0,0,0,0,0,0,0,0,0,0,0,0,0,0,0,0,0,0,0,0,0,0,0,0,0,0,0,0.4285,0.4285,0,0.4227,0.4227,0.4226,0.4229,0.423,0.4231,0.4232,0.4168,0.4166,0.4164,0,0,0,0,0,0,0,0,0,0,0,0,0,0.4395,0.4393,0.4285,0.4284,0.4284,0.4228,0.4227,0.4226,0.4229,0.423,0.4231,0.4232,0.4169,0.4166,0.4163,0,0,0,0,0,0,0,0,0,0,0,0,0,0.4343,0.4392,0.4285,0.4279,0.4277,0.4228,0.4227,0.4226,0.4229,0.423,0.4231,0.4232,0.417,0.4167,0.4163,0.4115,0,0,0.4152,0.415,0,0,0,0,0,0,0,0,0.4346,0.4339,0.428,0.4279,0.4278,0.4237,0.4242,0.4188,0.4228,0.4247,0.4232,0.4233,0.419,0.4185,0.4171,0.4112,0.4109,0.4151,0.4149,0.4147,0.4146,0,0,0,0,0,0,0,0.435,0.4342,0.4262,0.4279,0.4278,0.4277,0.4271,0.4232,0.4212,0.4246,0.4246,0.4239,0.4189,0.4174,0.4169,0.4108,0.4151,0.4148,0.4146,0.4144,0.4007,0.4006,0,0,0,0,0,0,0.4355,0.4345,0.4264,0.426,0.4316,0.4274,0.4268,0.4249,0.4212,0.4208,0.4238,0.4239,0.418,0.4174,0.4167,0.4109,0.4148,0.4144,0.4142,0.4009,0.4007,0.4006,0,0,0,0,0,0,0.4358,0.4348,0.4266,0.4303,0.4292,0.4271,0.425,0.4247,0.4232,0.4207,0.4203,0.4227,0.4181,0.4172,0.4128,0.4106,0.4142,0.4139,0.4011,0.4008,0.4006,0.3991,0,0,0,0,0,0,0.4361,0.4349,0.4331,0.4302,0.429,0.4229,0.4248,0.4245,0.4226,0.4227,0.4195,0.4191,0.4181,0.4134,0.4125,0.4102,0.4136,0.4012,0.401,0.4007,0.3993,0.3988,0.3984,0,0,0,0,0,0.4365,0.4328,0.433,0.432,0.4268,0.4228,0.4221,0.4212,0.4224,0.4206,0.419,0.4192,0.4111,0.4129,0.4119,0.4095,0.4014,0.401,0.4007,0.3995,0.3989,0.3985,0,0,0,0,0,0,0.4353,0.4324,0.4326,0.4279,0.4256,0.4229,0.4205,0.4206,0.4178,0.418,0.4168,0.4161,0.4117,0.4102,0.4123,0.4047,0.4064,0.4058,0.4058,0.4052,0.4048,0.4052,0.4133,0,0,0,0,0,0.4345,0.4316,0.4292,0.4253,0.4242,0.4225,0.4208,0.4203,0.4178,0.4168,0.4148,0.4123,0.4092,0.4072,0.4041,0.3992,0.3984,0.397,0.3966,0.3962,0.3957,0.393,0.3923,0.3995,0.3995,0.3995,0,0,0.4328,0.4309,0.4291,0.425,0.4232,0.4202,0.4217,0.4184,0.4161,0.4162,0.412,0.4105,0.4076,0.4029,0.4007,0.4015,0.3936,0.3958,0.3956,0.3952,0.3926,0.3919,0.3913,0.3993,0.3993,0.3994,0,0,0.4281,0.4265,0.423,0.4212,0.4185,0.4174,0.4166,0.4139,0.4129,0.4087,0.4087,0.406,0.4006,0.3986,0.3968,0.3916,0.3916,0.3906,0.3882,0.3856,0.385,0.3845,0.3825,0.3819,0.3902,0.3902,0.3901,0,0.4263,0.4218,0.4212,0.4179,0.4161,0.4163,0.4128,0.411,0.4073,0.406,0.407,0.4004,0.3985,0.3933,0.392,0.3906,0.3896,0.3909,0.3852,0.3846,0.3841,0.3823,0.3816,0.39,0.3901,0.3901,0.3901,0,0.4197,0.4166,0.4142,0.4108,0.4088,0.4053,0.4041,0.4021,0.4018,0.4007,0.3963,0.3941,0.3906,0.3894,0.389,0.3841,0.3847,0.3854,0.3871,0.3834,0.3816,0.3809,0.3899,0.3899,0.3899,0.39,0,0,0.4139,0.4105,0.4095,0.408,0.4051,0.4027,0.3993,0.3961,0.3943,0.3919,0.3889,0.3845,0.3852,0.3832,0.3827,0.3803,0.3763,0.3814,0.3813,0.3804,0.3707,0.3701,0.3692,0.3764,0.3763,0.3762,0.3709,0,0.4089,0.403,0.4024,0.3971,0.3942,0.3944,0.3915,0.3893,0.3882,0.3855,0.3842,0.381,0.3823,0.3811,0.3788,0.3773,0.3743,0.3776,0.3735,0.3734,0.3741,0.3683,0.3676,0.3627,0.3702,0.3701,0.37,0,0.4022,0.3997,0.3941,0.3917,0.3905,0.3878,0.3849,0.3823,0.3799,0.3792,0.3771,0.3769,0.3733,0.3753,0.3703,0.3726,0.3709,0.3699,0.3697,0.3692,0.3714,0.3675,0.3612,0.3604,0.3689,0.369,0.3691,0,0.3984,0.3937,0.3897,0.3885,0.3855,0.3837,0.3824,0.3801,0.3782,0.3756,0.3744,0.3714,0.3697,0.3673,0.3662,0.3678,0.3613,0.3632,0.3605,0.3606,0.359,0.3591,0.3522,0.3582,0.3582,0.3582,0.3582,0,0.3927,0.3893,0.388,0.3856,0.3817,0.3811,0.3772,0.376,0.374,0.3713,0.3713,0.3687,0.3676,0.3648,0.3639,0.3599,0.3592,0.3585,0.3582,0.3584,0.3584,0.3571,0.3574,0.358,0.358,0.3581,0.3581,0,0.3878,0.3868,0.3825,0.3802,0.3795,0.3768,0.3748,0.3724,0.3714,0.3679,0.367,0.3654,0.3621,0.3609,0.3569,0.3564,0.3517,0.3518,0.3525,0.3524,0.3498,0.35,0.3417,0.3406,0.3474,0.3474,0.3473,0,0.3841,0.3815,0.379,0.3772,0.3759,0.373,0.3712,0.3705,0.3685,0.3657,0.3636,0.3604,0.3578,0.3526,0.3509,0.3479,0.3478,0.3452,0.3474,0.3476,0.3477,0.3478,0.3475,0.3447,0.3446,0.3446,0.3445,0,0.3778,0.3775,0.3749,0.3721,0.3699,0.3677,0.3655,0.3641,0.363,0.3608,0.3576,0.3556,0.3516,0.3484,0.3453,0.3438,0.3439,0.3439,0.3431,0.3431,0.3436,0.3432,0.3513,0.344,0.3441,0.3441,0.3441,0.3441,0.3733,0.371,0.3689,0.366,0.3643,0.3623,0.36,0.3588,0.3561,0.3529,0.3526,0.3491,0.3468,0.3427,0.3411,0.3383,0.339,0.3379,0.3376,0.3373,0.337,0.3442,0.3377,0.3378,0.3378,0.3378,0.3378,0,0.3668,0.3655,0.3629,0.3599,0.3577,0.3582,0.3559,0.3539,0.3509,0.3488,0.3463,0.3426,0.3395,0.3377,0.3347,0.3327,0.3327,0.3319,0.332,0.3316,0.3366,0.3376,0.332,0.332,0.332,0.332,0.332,0.332,0.3632,0.3593,0.3588,0.3541,0.3528,0.3495,0.3481,0.3462,0.3446,0.3405,0.338,0.3369,0.335,0.3318,0.329,0.3285,0.3273,0.3264,0.326,0.3307,0.3313,0.3318,0.3327,0.3262,0.3262,0.3213,0.3212,0.3212]},{"header":{"parameterUnit":"m.s-1","parameterCategory":1,"la1":30.2991,"la2":30.254,"lo1":-89.0895,"lo2":-89.0444,"dy":0.0017,"dx":0.0017,"nx":28,"ny":28,"refTime":"2025-12-10T09:00:00:Z","depth":0,"parameterNumber":3,"parameterNumberName":"V-component_of_WINDS"},"data":[0,0,0,0,0,0,0,0,0,0,0,0,0,0,0,0,0,0,0,0,0,0,0,0,0,0,0,0,0,0,0,0,0,0,0,0,0,0,0,0,0,0,0,0,0,0,0,0,0,0,0,0,0,0,0,0,0,0,-5.2681,-5.2682,0,-5.2789,-5.279,-5.2791,-5.2709,-5.2705,-5.2702,-5.2699,-5.2805,-5.2811,-5.2817,0,0,0,0,0,0,0,0,0,0,0,0,0,-5.2399,-5.2405,-5.2681,-5.2682,-5.2683,-5.2789,-5.279,-5.2792,-5.271,-5.2705,-5.2701,-5.2697,-5.2803,-5.2811,-5.2818,0,0,0,0,0,0,0,0,0,0,0,0,0,-5.2516,-5.2407,-5.268,-5.2655,-5.2654,-5.2788,-5.279,-5.2792,-5.2711,-5.2705,-5.27,-5.2695,-5.2801,-5.281,-5.2819,-5.2983,0,0,-5.2847,-5.2851,0,0,0,0,0,0,0,0,-5.2509,-5.2526,-5.2658,-5.2657,-5.2656,-5.273,-5.273,-5.2856,-5.2712,-5.2689,-5.2698,-5.2692,-5.2784,-5.2795,-5.2826,-5.2988,-5.2992,-5.2848,-5.2854,-5.2857,-5.286,0,0,0,0,0,0,0,-5.2501,-5.2521,-5.2723,-5.266,-5.2659,-5.2637,-5.2648,-5.2753,-5.2765,-5.2691,-5.2685,-5.2699,-5.2783,-5.2818,-5.2828,-5.2994,-5.2848,-5.2856,-5.2862,-5.2865,-5.3295,-5.33,0,0,0,0,0,0,-5.2496,-5.2515,-5.272,-5.2726,-5.2568,-5.2647,-5.2659,-5.2712,-5.2764,-5.2767,-5.2703,-5.2695,-5.2805,-5.2818,-5.2832,-5.3027,-5.2857,-5.2866,-5.2871,-5.3289,-5.3296,-5.3302,0,0,0,0,0,0,-5.2491,-5.2515,-5.2715,-5.2619,-5.2643,-5.2657,-5.2717,-5.2717,-5.2751,-5.2774,-5.2775,-5.2737,-5.2801,-5.2819,-5.2946,-5.303,-5.287,-5.2879,-5.3282,-5.3291,-5.3299,-5.342,0,0,0,0,0,0,-5.2483,-5.2514,-5.2577,-5.2621,-5.2649,-5.283,-5.2723,-5.2723,-5.2768,-5.2758,-5.2806,-5.2808,-5.2798,-5.2933,-5.2955,-5.304,-5.2886,-5.3274,-5.3286,-5.3296,-5.3409,-5.3432,-5.3452,0,0,0,0,0,-5.2473,-5.2606,-5.2581,-5.2606,-5.2728,-5.2835,-5.285,-5.2837,-5.2775,-5.2838,-5.2853,-5.2807,-5.3017,-5.2947,-5.2971,-5.306,-5.3269,-5.3283,-5.3296,-5.3399,-5.3427,-5.3451,0,0,0,0,0,0,-5.2569,-5.2611,-5.2584,-5.2735,-5.2782,-5.2821,-5.29,-5.2867,-5.2931,-5.2919,-5.2898,-5.291,-5.3044,-5.3064,-5.2985,-5.3221,-5.3133,-5.3152,-5.3203,-5.323,-5.3251,-5.3244,-5.2894,0,0,0,0,0,-5.2609,-5.2693,-5.2724,-5.2854,-5.2879,-5.2886,-5.2932,-5.2918,-5.2965,-5.2984,-5.3007,-5.3054,-5.313,-5.3181,-5.3253,-5.3411,-5.342,-5.3484,-5.3505,-5.3523,-5.3539,-5.3625,-5.3654,-5.3346,-5.3346,-5.3345,0,0,-5.269,-5.2723,-5.2777,-5.2874,-5.2909,-5.2996,-5.2903,-5.2998,-5.3062,-5.2998,-5.312,-5.3139,-5.3189,-5.3333,-5.3398,-5.3354,-5.3626,-5.354,-5.3553,-5.3561,-5.3641,-5.3671,-5.3697,-5.3355,-5.3353,-5.3352,0,0,-5.2882,-5.2916,-5.3028,-5.3066,-5.312,-5.3123,-5.3151,-5.3195,-5.3205,-5.3328,-5.3281,-5.3356,-5.3488,-5.3526,-5.3563,-5.3771,-5.3731,-5.3794,-5.3907,-5.3991,-5.4015,-5.4036,-5.4111,-5.4138,-5.3811,-5.3811,-5.3811,0,-5.2976,-5.3106,-5.309,-5.319,-5.3234,-5.3181,-5.3294,-5.333,-5.3405,-5.3436,-5.3387,-5.3552,-5.3582,-5.3735,-5.3785,-5.3817,-5.3847,-5.3789,-5.4013,-5.4034,-5.4054,-5.4125,-5.4153,-5.3818,-5.3817,-5.3817,-5.3816,0,-5.3219,-5.331,-5.3394,-5.3469,-5.3523,-5.3629,-5.3628,-5.3684,-5.3665,-5.3673,-5.3799,-5.3833,-5.3911,-5.3946,-5.3927,-5.4096,-5.4067,-5.4016,-5.3927,-5.4091,-5.4158,-5.4185,-5.3829,-5.3826,-5.3824,-5.3822,0,0,-5.3475,-5.3541,-5.3572,-5.3606,-5.3662,-5.3732,-5.3835,-5.3913,-5.3961,-5.4014,-5.41,-5.4213,-5.4167,-5.4208,-5.4194,-5.4267,-5.443,-5.4206,-5.4207,-5.4248,-5.4618,-5.4657,-5.4689,-5.4404,-5.4409,-5.4413,-5.4614,0,-5.3671,-5.3853,-5.3842,-5.4012,-5.4096,-5.4047,-5.4137,-5.418,-5.4191,-5.4263,-5.4273,-5.4354,-5.4286,-5.4311,-5.4381,-5.4395,-5.4504,-5.438,-5.4483,-5.4487,-5.4473,-5.4723,-5.4765,-5.4953,-5.464,-5.4644,-5.4647,0,-5.3924,-5.3988,-5.4168,-5.4212,-5.4247,-5.4328,-5.4399,-5.4468,-5.4516,-5.4518,-5.4566,-5.4539,-5.4642,-5.4551,-5.4693,-5.4609,-5.465,-5.4663,-5.467,-5.468,-5.4578,-5.4741,-5.5013,-5.5041,-5.4688,-5.4684,-5.4682,0,-5.4094,-5.4225,-5.4349,-5.4379,-5.4434,-5.4493,-5.4518,-5.4561,-5.4609,-5.467,-5.47,-5.4772,-5.4811,-5.4867,-5.486,-5.4794,-5.5004,-5.4912,-5.5009,-5.5009,-5.5056,-5.5054,-5.534,-5.5081,-5.5081,-5.508,-5.508,0,-5.4315,-5.4427,-5.4427,-5.4504,-5.4627,-5.4613,-5.4735,-5.4753,-5.4792,-5.4871,-5.4831,-5.4906,-5.4892,-5.4966,-5.496,-5.5079,-5.5096,-5.5101,-5.5098,-5.5105,-5.5105,-5.5132,-5.5119,-5.5088,-5.5086,-5.5085,-5.5084,0,-5.4526,-5.4531,-5.4663,-5.4705,-5.4718,-5.4807,-5.4842,-5.4914,-5.4921,-5.5021,-5.5044,-5.5055,-5.514,-5.5139,-5.5234,-5.5231,-5.5377,-5.5358,-5.5361,-5.5358,-5.5455,-5.5447,-5.577,-5.5812,-5.5526,-5.5528,-5.5531,0,-5.4667,-5.4753,-5.4804,-5.4855,-5.4884,-5.4966,-5.5015,-5.5003,-5.5055,-5.5117,-5.5182,-5.5264,-5.5328,-5.5466,-5.5482,-5.5555,-5.5539,-5.5647,-5.555,-5.5554,-5.5542,-5.5537,-5.5546,-5.5667,-5.567,-5.5672,-5.5675,0,-5.4917,-5.4916,-5.4988,-5.5063,-5.5123,-5.518,-5.5233,-5.5276,-5.527,-5.5331,-5.5418,-5.5469,-5.5568,-5.5649,-5.572,-5.5744,-5.5709,-5.5705,-5.5732,-5.574,-5.5738,-5.5741,-5.5415,-5.5698,-5.5696,-5.5694,-5.5693,-5.5692,-5.5098,-5.5172,-5.522,-5.5303,-5.5342,-5.5392,-5.5462,-5.5479,-5.5552,-5.5633,-5.5621,-5.5719,-5.5765,-5.5856,-5.5887,-5.5962,-5.5924,-5.5962,-5.5972,-5.5982,-5.5993,-5.5726,-5.5975,-5.5974,-5.5973,-5.5973,-5.5972,0,-5.5347,-5.5376,-5.5452,-5.5528,-5.5593,-5.5556,-5.5612,-5.5668,-5.5756,-5.5802,-5.5867,-5.5967,-5.6046,-5.6069,-5.6145,-5.6201,-5.6186,-5.6221,-5.6217,-5.6223,-5.6022,-5.5993,-5.6231,-5.6231,-5.6231,-5.6231,-5.6231,-5.6231,-5.5484,-5.5608,-5.5612,-5.5754,-5.5781,-5.5878,-5.5914,-5.596,-5.5997,-5.6111,-5.6177,-5.6192,-5.6228,-5.6307,-5.6377,-5.6381,-5.6411,-5.6453,-5.6451,-5.6263,-5.6237,-5.6213,-5.6184,-5.646,-5.646,-5.6646,-5.6647,-5.6649]}]]